TimeMDT,TemperatureF,Dew PointF,Humidity,Sea Level PressureIn,VisibilityMPH,Wind Direction,Wind SpeedMPH,Gust SpeedMPH,PrecipitationIn,Events,Conditions,WindDirDegrees,DateUTC
12:53 AM,36.0,33.1,89,30.07,10.0,ENE,6.9,-,0.00,,Overcast,60,2012-10-09 06:53:00
2:00 AM,37.4,33.8,87,30.07,10.0,East,4.6,-,N/A,,Overcast,90,2012-10-09 08:00:00
2:53 AM,37.0,33.1,86,30.05,10.0,NE,3.5,-,N/A,,Overcast,50,2012-10-09 08:53:00
3:01 AM,37.4,33.8,87,30.07,10.0,Calm,Calm,-,N/A,,Overcast,0,2012-10-09 09:01:00
3:53 AM,37.0,33.1,86,30.06,10.0,Calm,Calm,-,N/A,,Overcast,0,2012-10-09 09:53:00
4:53 AM,37.0,33.1,86,30.07,10.0,Calm,Calm,-,N/A,,Overcast,0,2012-10-09 10:53:00
5:05 AM,37.4,33.8,87,30.08,10.0,Calm,Calm,-,N/A,,Overcast,0,2012-10-09 11:05:00
5:53 AM,37.0,33.1,86,30.11,10.0,Calm,Calm,-,N/A,,Overcast,0,2012-10-09 11:53:00
6:53 AM,37.0,34.0,89,30.12,10.0,Calm,Calm,-,N/A,,Overcast,0,2012-10-09 12:53:00
7:07 AM,37.4,33.8,87,30.10,10.0,WSW,3.5,-,N/A,,Overcast,250,2012-10-09 13:07:00
7:53 AM,37.0,34.0,89,30.13,10.0,West,4.6,-,N/A,,Overcast,260,2012-10-09 13:53:00
8:53 AM,37.9,33.1,83,30.15,10.0,WNW,6.9,-,N/A,,Overcast,300,2012-10-09 14:53:00
9:53 AM,39.0,33.1,79,30.17,10.0,NW,8.1,-,N/A,,Overcast,320,2012-10-09 15:53:00
10:53 AM,39.9,34.0,79,30.18,10.0,NNW,6.9,-,N/A,,Overcast,340,2012-10-09 16:53:00
11:53 AM,43.0,35.1,74,30.17,10.0,NW,10.4,-,N/A,,Overcast,320,2012-10-09 17:53:00
12:53 PM,46.0,35.1,66,30.17,10.0,NW,8.1,-,N/A,,Overcast,310,2012-10-09 18:53:00
1:53 PM,52.0,32.0,47,30.11,10.0,West,9.2,-,N/A,,Overcast,260,2012-10-09 19:53:00
2:53 PM,55.0,21.9,28,30.09,10.0,WSW,12.7,-,N/A,,Partly Cloudy,250,2012-10-09 20:53:00
3:53 PM,55.9,28.9,36,30.07,10.0,WSW,16.1,21.9,N/A,,Clear,240,2012-10-09 21:53:00
4:53 PM,57.0,27.0,32,30.06,10.0,WSW,15.0,-,N/A,,Clear,250,2012-10-09 22:53:00
5:53 PM,55.0,28.0,35,30.06,10.0,WSW,12.7,-,N/A,,Clear,240,2012-10-09 23:53:00
6:53 PM,48.0,28.9,48,30.09,10.0,West,5.8,-,N/A,,Clear,280,2012-10-10 00:53:00
7:53 PM,43.0,28.9,58,30.11,10.0,WSW,4.6,-,N/A,,Clear,240,2012-10-10 01:53:00
8:53 PM,37.9,28.9,70,30.13,10.0,SSW,4.6,-,N/A,,Clear,210,2012-10-10 02:53:00
9:53 PM,36.0,28.0,73,30.13,10.0,West,3.5,-,N/A,,Clear,260,2012-10-10 03:53:00
10:53 PM,34.0,28.0,79,30.13,10.0,NW,4.6,-,N/A,,Clear,320,2012-10-10 04:53:00
11:53 PM,36.0,27.0,70,30.10,10.0,WNW,4.6,-,N/A,,Clear,300,2012-10-10 05:53:00